[[{"header":{"parameterUnit":"m.s-1","parameterCategory":1,"la1":30.2992,"la2":30.254,"lo1":-89.0895,"lo2":-89.0443,"dy":0.0025,"dx":0.0025,"nx":19,"ny":19,"refTime":"2026-05-12T03:00:00:Z","depth":0,"parameterNumber":2,"parameterNumberName":"U-component_of_WINDS"},"data":[0,0,0,-1.5686,-1.5687,-1.5734,-1.5734,-1.5821,-1.5822,0,0,0,0,0,0,0,0,0,0,0,-1.5687,-1.5688,-1.5685,-1.5687,-1.5734,-1.5734,-1.5821,-1.5822,0,0,0,0,0,0,0,0,0,0,0,-1.5687,-1.5688,-1.5689,-1.5687,-1.5734,-1.5734,-1.5821,-1.5776,0,0,0,0,0,0,0,0,0,0,-1.5726,-1.5742,-1.5688,-1.5689,-1.5688,-1.5734,-1.5734,-1.5773,-1.5779,-1.5811,0,-1.5843,0,-1.5834,-1.5829,-1.583,0,0,0,-1.5676,-1.5738,-1.5736,-1.569,-1.5688,-1.5734,-1.571,-1.5776,-1.5782,-1.5818,-1.5844,-1.5846,-1.5835,-1.583,-1.5831,-1.6051,-1.6053,0,0,-1.5673,-1.5705,-1.5732,-1.5741,-1.5734,-1.5708,-1.5711,-1.5779,-1.581,-1.5844,-1.5848,-1.5837,-1.5831,-1.5832,-1.605,-1.6052,0,0,0,-1.5673,-1.5703,-1.5699,-1.5738,-1.5744,-1.571,-1.5713,-1.5807,-1.5803,-1.5849,-1.5838,-1.5832,-1.5833,-1.6048,-1.6051,-1.616,0,0,0,-1.5671,-1.5703,-1.5699,-1.5718,-1.5744,-1.5776,-1.574,-1.5798,-1.5805,-1.5837,-1.5832,-1.5834,-1.6046,-1.605,-1.6153,-1.6209,0,0,0,-1.5679,-1.5704,-1.5716,-1.572,-1.5741,-1.5774,-1.5774,-1.5799,-1.5799,-1.583,-1.5834,-1.6045,-1.6049,-1.6147,-1.6198,-1.6278,0,0,0,-1.5696,-1.5812,-1.5718,-1.5843,-1.5741,-1.584,-1.5773,-1.5845,-1.5885,-1.5832,-1.6047,-1.605,-1.6145,-1.6192,-1.6272,-1.6354,-1.639,0,0,-1.5861,-1.5833,-1.5904,-1.5821,-1.5945,-1.583,-1.597,-1.5977,-1.5951,-1.602,-1.6025,-1.6156,-1.6198,-1.6277,-1.6571,-1.66,0,0,0,-1.5967,-1.6019,-1.6044,-1.6083,-1.6089,-1.61,-1.6081,-1.6083,-1.6139,-1.5992,-1.6202,-1.6226,-1.6271,-1.631,-1.6334,-1.6372,-1.6068,-1.6067,-1.6067,-1.6249,-1.6207,-1.6322,-1.6287,-1.6324,-1.6302,-1.6329,-1.6328,-1.6277,-1.6327,-1.6349,-1.6533,-1.6578,-1.6596,-1.6637,-1.6384,-1.6385,-1.6385,-1.6386,-1.6489,-1.6558,-1.6482,-1.6568,-1.6523,-1.6594,-1.6576,-1.6537,-1.6598,-1.6513,-1.6551,-1.6466,-1.6629,-1.6663,-1.6393,-1.6392,-1.6391,-1.639,-1.639,-1.6674,-1.67,-1.6697,-1.6747,-1.679,-1.6747,-1.6809,-1.6765,-1.6724,-1.6761,-1.6781,-1.678,-1.6776,-1.6772,-1.6773,-1.6774,-1.6774,-1.6775,-1.6775,-1.6869,-1.6863,-1.692,-1.6933,-1.6951,-1.6969,-1.6944,-1.6961,-1.6969,-1.6932,-1.6932,-1.6878,-1.665,-1.6597,-1.6785,-1.6783,-1.6782,-1.6781,-1.678,-1.7139,-1.7069,-1.7158,-1.7175,-1.7186,-1.7233,-1.7172,-1.721,-1.7216,-1.7249,-1.7183,-1.702,-1.6991,-1.6971,-1.6928,-1.7189,-1.7189,-1.7189,-1.7189,-1.7299,-1.7277,-1.7356,-1.7387,-1.7412,-1.7366,-1.7468,-1.7448,-1.7418,-1.742,-1.7374,-1.731,-1.7291,-1.7273,-1.7246,-1.7205,-1.7532,-1.7532,-1.7532,-1.7464,-1.7442,-1.7538,-1.7505,-1.7509,-1.7514,-1.7609,-1.7648,-1.7599,-1.7545,-1.7421,-1.7407,-1.7302,-1.727,-1.7221,-1.7181,-1.7104,0,0]},{"header":{"parameterUnit":"m.s-1","parameterCategory":1,"la1":30.2992,"la2":30.254,"lo1":-89.0895,"lo2":-89.0443,"dy":0.0025,"dx":0.0025,"nx":19,"ny":19,"refTime":"2026-05-12T03:00:00:Z","depth":0,"parameterNumber":3,"parameterNumberName":"V-component_of_WINDS"},"data":[0,0,0,-2.652,-2.6524,-2.6702,-2.6702,-2.6918,-2.692,0,0,0,0,0,0,0,0,0,0,0,-2.6463,-2.6464,-2.652,-2.6524,-2.6701,-2.6702,-2.6918,-2.692,0,0,0,0,0,0,0,0,0,0,0,-2.6463,-2.6464,-2.6466,-2.6525,-2.6701,-2.6702,-2.6917,-2.6787,0,0,0,0,0,0,0,0,0,0,-2.6616,-2.656,-2.6464,-2.6466,-2.6526,-2.6701,-2.6702,-2.6781,-2.6795,-2.6834,0,-2.6869,0,-2.6898,-2.6934,-2.6935,0,0,0,-2.6527,-2.6548,-2.66,-2.6466,-2.6527,-2.6701,-2.6622,-2.6789,-2.6805,-2.6853,-2.6872,-2.688,-2.6902,-2.6935,-2.6936,-2.7156,-2.7156,0,0,-2.6517,-2.6492,-2.6589,-2.661,-2.6585,-2.6617,-2.6628,-2.6799,-2.6818,-2.6873,-2.6886,-2.6905,-2.6937,-2.6938,-2.7155,-2.7156,0,0,0,-2.6487,-2.6485,-2.6533,-2.6601,-2.6634,-2.6622,-2.6635,-2.681,-2.6828,-2.6888,-2.6908,-2.6938,-2.694,-2.7154,-2.7155,-2.7176,0,0,0,-2.6481,-2.6468,-2.6529,-2.6515,-2.6631,-2.6725,-2.6642,-2.6816,-2.6836,-2.6907,-2.6938,-2.6942,-2.7153,-2.7155,-2.7174,-2.719,0,0,0,-2.6453,-2.6465,-2.6489,-2.6514,-2.6589,-2.6723,-2.675,-2.6821,-2.6848,-2.6935,-2.6943,-2.7152,-2.7154,-2.7171,-2.7186,-2.7241,0,0,0,-2.6415,-2.6504,-2.6489,-2.6596,-2.6588,-2.6735,-2.675,-2.686,-2.6937,-2.6939,-2.7153,-2.7155,-2.7171,-2.7184,-2.7238,-2.7283,-2.7299,0,0,-2.6514,-2.6515,-2.658,-2.6572,-2.6715,-2.671,-2.6856,-2.6949,-2.6979,-2.7094,-2.71,-2.7175,-2.7186,-2.724,-2.7398,-2.741,0,0,0,-2.6603,-2.6649,-2.6693,-2.6766,-2.684,-2.6905,-2.6978,-2.7013,-2.7112,-2.7034,-2.721,-2.7217,-2.725,-2.7272,-2.7283,-2.7313,-2.7164,-2.7164,-2.7164,-2.6706,-2.6741,-2.6851,-2.6907,-2.6977,-2.7053,-2.7112,-2.7171,-2.7184,-2.7225,-2.726,-2.7351,-2.7376,-2.7385,-2.7415,-2.7286,-2.7286,-2.7286,-2.7286,-2.6854,-2.6925,-2.6942,-2.7054,-2.7089,-2.7183,-2.7258,-2.7264,-2.7356,-2.7328,-2.7358,-2.7325,-2.7398,-2.7426,-2.7288,-2.7287,-2.7287,-2.7287,-2.7287,-2.6926,-2.6966,-2.7007,-2.7117,-2.7196,-2.7249,-2.7336,-2.7365,-2.7392,-2.7422,-2.7462,-2.7462,-2.7465,-2.7439,-2.744,-2.744,-2.744,-2.744,-2.7441,-2.6984,-2.703,-2.7101,-2.7188,-2.7238,-2.7308,-2.7384,-2.7434,-2.7496,-2.751,-2.751,-2.7519,-2.7399,-2.7368,-2.7446,-2.7445,-2.7444,-2.7444,-2.7443,-2.712,-2.7094,-2.7204,-2.7255,-2.7359,-2.7436,-2.7471,-2.757,-2.7615,-2.7657,-2.766,-2.7566,-2.7569,-2.7561,-2.7535,-2.7652,-2.7652,-2.7652,-2.7652,-2.7181,-2.7186,-2.7305,-2.7384,-2.7465,-2.7509,-2.763,-2.7689,-2.7746,-2.7775,-2.7762,-2.7731,-2.7721,-2.773,-2.7718,-2.7695,-2.785,-2.785,-2.785,-2.7267,-2.7281,-2.738,-2.7437,-2.752,-2.759,-2.7705,-2.7793,-2.7852,-2.7859,-2.7799,-2.7791,-2.7741,-2.7723,-2.7728,-2.7709,-2.7667,0,0]}]]